Regional Weather Roundup
Issued by NWS

Home | Current Version | Previous Version | Graphics & Text | Print | Product List | Glossary On
Versions: 1 2 3 4 5 6 7 8 9 10 11 12 13 14 15 16 17 18 19 20 21 22 23 24 25 26 27 28 29 30 31 32 33 34 35 36 37 38 39 40 41 42 43 44 45 46 47 48 49 50
000
ASUS45 KPSR 060810
RWRAZ

ARIZONA REGIONAL HOURLY WEATHER ROUNDUP
NATIONAL WEATHER SERVICE PHOENIX AZ
100 AM MST WED MAY 06 2015

NOTE: FAIR INDICATES FEW OR NO CLOUDS BELOW 12,000 FEET WITH NO
SIGNIFICANT WEATHER AND/OR OBSTRUCTIONS TO VISIBILITY.

AZZ001>003-036-060900-
NORTHWEST ARIZONA

CITY           SKY/WX    TMP DP  RH WIND       PRES   REMARKS
BULLHEAD CITY  PTCLDY    73  39  29 S3        29.76S
KINGMAN        MOCLDY    60  29  30 S10       29.88F
$$

AZZ004>008-015-016-018-060900-
NORTH CENTRAL ARIZONA

CITY           SKY/WX    TMP DP  RH WIND       PRES   REMARKS
GRAND CANYON   MOCLDY    42  39  89 SW8       30.01F
WILLIAMS       PTCLDY    48  37  66 SW12G21   30.08S
PRESCOTT       PTCLDY    54  40  59 S7        29.98S
FLAGSTAFF      MOCLDY    39  38  96 CALM      30.05S
PAYSON         PTCLDY    50  46  87 CALM      30.01F
$$

AZZ009>014-017-060900-
NORTHEAST ARIZONA

CITY           SKY/WX    TMP DP  RH WIND       PRES   REMARKS
WINSLOW        CLEAR     54  43  66 SW12      29.94F
SAINT JOHNS    CLOUDY    53  41  63 SW14      29.97F
WINDOW ROCK    PTCLDY    47  42  83 SW12      29.99F
SHOW LOW       CLOUDY    45  39  81 S9        30.04S
$$

AZZ023-060900-
GREATER PHOENIX AREA

CITY           SKY/WX    TMP DP  RH WIND       PRES   REMARKS
PHOENIX        MOCLDY    77  45  32 NW6       29.81S
LUKE AFB       PTCLDY    72  48  42 SW8       29.81S
DEER VALLEY    CLOUDY    72  45  37 W8        29.83S
SCOTTSDALE     MOCLDY    74  45  35 CALM      29.85S
MESA-GATEWAY   PTCLDY    68  50  52 CALM      29.85F
$$

AZZ027-028-060900-
SOUTHWEST MARICOPA COUNTY AND PINAL COUNTY

CITY           SKY/WX    TMP DP  RH WIND       PRES   REMARKS
CASA GRANDE    MOCLDY    70  48  46 CALM      29.83F
GILA BEND      FAIR      71  40  33 S8        29.81S
$$

AZZ503-504-507>509-060900-
SOUTHEAST ARIZONA

CITY           SKY/WX    TMP DP  RH WIND       PRES   REMARKS
TUCSON         CLEAR     67  47  48 CALM      29.94R
DAVIS-MONTHAN  PTCLDY    65  47  53 S6        29.92S
NOGALES        CLEAR     59  42  53 SE5       29.99F
SIERRA VISTA   CLEAR     60  36  41 W8        30.02S
DOUGLAS        CLEAR     52  34  50 CALM      29.99S
SAFFORD        CLEAR     57  44  62 S5        29.91F
$$

AZZ020-021-025-026-031-060900-
SOUTHWEST ARIZONA

CITY           SKY/WX    TMP DP  RH WIND       PRES   REMARKS
YUMA           PTCLDY    72  58  61 SW6       29.77F
$$

CAZ031-033-041-043-047-048-061-060900-
SOUTHERN CALIFORNIA

CITY           SKY/WX    TMP DP  RH WIND       PRES   REMARKS
DOWNTOWN L.A.  PTCLDY    58  50  75 CALM      29.95S
L.A. AIRPORT   MOCLDY    58  52  80 CALM      29.95F
SAN DIEGO      CLOUDY    62  47  57 S3        29.97F
BURBANK        CLOUDY    57  47  69 E6        29.94F
ONTARIO        MOCLDY    54  47  77 W7        29.94F
RIVERSIDE      CLOUDY    56  47  71 CALM      29.95F
PALM SPRINGS   PTCLDY    69  43  38 NW12G20   29.79S
EL CENTRO NAS  PTCLDY    67  44  43 W20       29.79S
IMPERIAL       PTCLDY    66  46  48 W16       29.76F
BLYTHE         MOCLDY    75  38  26 S8        29.77F
NEEDLES        MOCLDY    78  34  20 SW12      29.75F
$$

NVZ020-UTZ003-060900-
SOUTHERN NEVADA-UTAH

CITY           SKY/WX    TMP DP  RH WIND       PRES   REMARKS
LAS VEGAS      CLOUDY    73  33  23 S8        29.73R
SALT LAKE CITY CLOUDY    56  49  77 SE6       29.82S
$$

NMZ009-TXZ055-060900-
NEW MEXICO-WEST TEXAS

CITY           SKY/WX    TMP DP  RH WIND       PRES   REMARKS
ALBUQUERQUE    CLOUDY    54  44  69 S7        29.95F
EL PASO        CLEAR     67  39  35 NW12      29.93S
$$


........................KEY........................
SKY/WX - SKY CONDITION/WEATHER
TMP    - TEMPERATURE IN FAHRENHEIT
DP     - DEW POINT IN FAHRENHEIT
RH     - RELATIVE HUMIDITY IN PERCENT
WIND   - DIRECTION AND SPEED IN MILES PER HOUR (MPH)
VRB    - VARIABLE WIND DIRECTION
PRES   - MEAN SEA LEVEL PRESSURE IN INCHES OF MERCURY
         F - FALLING PRESSURE   R - RISING PRESSURE
         S - STEADY PRESSURE
VSB    - VISIBILITY IN MILES
HX     - HEAT INDEX IN FAHRENHEIT
WCI    - WIND CHILL INDEX IN FAHRENHEIT
TC     - TEMPERATURE IN CELSIUS WHICH IS ALSO KNOWN AS
         TEMPERATURE IN CENTIGRADE
AFB    - AIR FORCE BASE
         LUKE AFB IS LUKE AIR FORCE BASE
         DAVIS-MONTHAN IS DAVIS-MONTHAN AIR FORCE BASE
NAS    - NAVAL AIR STATION
         EL CENTRO NAS IS EL CENTRO NAVAL AIR STATION
N/A    - NOT AVAILABLE



USA.gov is the U.S. government's official web portal to all federal, state and local government web resources and services.